Location: ????????
(55.7667°N, 37.4833°E)
Time: 14:29:20
(UTC+00:00)

Cosmos 2292 Rocket - Pass Details

Date: 19 May 2025
Orbit: 369 x 1266 km, 83.0° (Epoch: 20 June)

Event Time Altitude Azimuth Distance (km) Brightness Sun altitude
Exits shadow 23:07:25 11° 175° (S) 2,463 6.1 -11.3°
Maximum altitude 23:12:48 61° 97° (E) 820 4.3 -11.0°
Drops below altitude 10° 23:17:06 10° 18° (NNE) 1,966 7.7 -10.7°
Sets 23:19:04 0° 14° (NNE) 2,756 8.8 -10.6°
